Find Starlink 4384

NORAD ID: 53218 Int'l Des: 2022-084 Owner: SPXS Country: US Constellation: starlink operational
LEOCIRCULARRETROGRADESSO

Live Position

Loading 3D Globe...

About Starlink 4384

Description loading...

Upcoming Passes

Passes for default location (London). Set your location on the main map for personalized predictions.

Altitude History

Loading altitude history...

Two-Line Element Set

1 53218U 22084AF 26106.08689304 -.00000354 00000-0 -20306-4 0 9997
2 53218 97.6032 168.1496 0000748 126.6280 233.5016 15.05646410205534
Epoch: Apr 16, 2026 • Age: 19 hours

Current Status

Altitude 570.5 km
Velocity 7.57 km/s
Sub-Earth Point -52.57°S, 19.05°E
Launch Date Jul 22, 2022
Age 3.7 years
Type internet

Technical Details

Classification Payload
Mass 297.00 kg
Dry Mass 275.00 kg
Total Mass 297.00 kg
Length 0.20 m
Diameter 2.80 m
Span 9.00 m
Shape Box + pan
Manufacturer SPXS
Bus Type Starlink
Phase Status In Orbit
Owner/State SPXS/US

Most Searched